User: anonymous   Login
Location: Caltech
(34.1382°N, 118.1253°W)
Time: 01:09:25
(UTC-08:00)
Language:

SPOT 1/Viking Rocket - Orbit

View from above orbital plane
View from above orbital plane
View from above satellite
View from above satellite

Ground track
Ground track

The orbit data is extracted from the following two-line orbital elements,

1 16615U 86019C   17327.86959267  .00000038  00000-0  30845-4 0  9990
2 16615  98.5945  33.6883 0010739 297.2295 192.0352 14.31684418662341
Epoch (UTC): 23 November 2017 20:52:12
Eccentricity: 0.0010739
inclination: 98.5945°
perigee height: 778 km
apogee height: 794 km
right ascension of ascending node: 33.6883°
argument of perigee: 297.2295°
revolutions per day: 14.31684418
mean anomaly at epoch: 192.0352°
orbit number at epoch: 66234

The dashed part of the orbit path shows where the satellite is in the earth's shadow,  

DLR